Theta_e
314 313 315 320 322 323 325 329 330 332 333 337 337 336 337 355 355 355 353 353 353 337 331 346 345 346 346 345 344 344 343 340 340 337 330 323 324 322 322 321 324 327 327 324 324 324 327 328 327
312 313 316 318 323 326 326 328 330 332 337 338 338 337 339 356 355 349 345 355 354 335 329 344 345 345 346 345 343 344 344 343 341 338 330 324 324 322 323 323 323 328 327 324 325 326 328 328 329
311 314 320 316 321 326 327 329 330 333 337 337 337 336 342 355 354 355 354 355 354 342 329 342 343 342 343 344 342 342 344 344 342 337 330 324 324 322 324 324 327 327 326 324 325 328 330 330 330
311 317 322 318 321 325 327 328 329 331 333 336 336 335 342 357 358 354 352 354 354 341 333 338 341 342 342 342 340 340 344 344 343 338 331 325 324 323 323 326 328 328 327 324 325 326 330 331 331
316 316 317 317 319 322 324 328 330 331 334 337 335 338 351 355 358 354 354 354 354 338 336 337 339 339 339 338 337 338 343 345 343 339 333 327 324 325 325 328 329 329 325 323 324 325 325 330 330
316 318 315 317 317 320 323 326 327 327 329 333 333 333 352 358 357 358 358 357 355 334 335 340 340 337 336 334 335 338 343 345 343 340 335 329 325 327 325 329 332 330 322 322 324 325 324 324 326
315 314 314 315 317 319 321 323 325 326 326 332 332 331 355 355 354 355 356 356 354 342 338 341 340 337 334 334 335 338 343 344 343 341 336 330 328 326 327 325 327 323 322 322 323 324 324 324 324
318 313 314 316 317 317 320 321 324 325 326 327 332 330 356 354 354 354 355 353 355 353 347 340 340 338 334 334 335 338 343 344 341 339 335 331 329 325 326 326 323 322 322 322 322 324 324 324 324
317 315 314 315 316 316 320 319 323 325 326 329 331 331 341 353 352 351 351 351 352 353 354 343 338 336 334 336 338 342 343 343 340 337 333 330 328 325 326 327 324 322 323 323 322 322 322 322 323
315 313 315 316 316 316 318 319 320 322 326 325 326 327 340 339 339 347 347 345 343 341 343 353 335 335 335 336 338 341 342 342 339 336 332 330 326 323 323 326 326 323 323 324 323 322 322 322 322
315 315 315 317 318 318 318 319 320 320 320 324 324 325 337 339 335 336 350 347 342 338 352 352 337 335 335 337 336 338 339 338 338 335 332 328 325 323 324 326 326 325 324 323 324 323 323 323 323
312 316 316 317 318 319 317 319 318 320 320 320 320 321 323 329 334 336 340 340 341 345 349 348 346 342 343 343 337 333 334 335 334 332 332 328 324 329 341 332 333 331 327 323 323 323 324 333 337
313 314 317 318 318 318 319 317 318 319 320 320 320 320 321 321 335 340 340 350 350 350 350 348 347 344 345 347 345 338 333 332 332 332 334 333 330 340 343 341 339 340 340 339 332 335 332 337 339
315 315 316 317 318 318 317 317 319 319 319 319 319 319 320 320 321 328 333 342 350 348 348 347 347 339 339 343 345 345 341 337 336 334 336 339 336 341 344 342 340 340 345 342 342 342 342 340 342
314 313 314 316 317 316 319 315 317 319 318 318 318 319 319 319 320 321 327 329 339 348 349 350 348 345 341 341 342 345 345 345 345 346 346 346 338 346 347 347 344 346 347 347 346 344 346 345 346
313 313 313 313 315 316 317 316 316 318 318 318 318 318 319 319 319 320 321 326 332 334 345 344 342 343 342 341 335 337 348 348 347 347 348 347 345 345 347 347 346 346 345 346 345 345 345 345 343
313 314 313 314 314 315 315 316 316 318 318 317 318 318 318 319 319 318 320 323 329 334 338 340 341 338 338 335 335 345 347 348 347 345 347 348 346 346 346 345 344 340 343 342 337 343 340 341 340
314 314 315 315 315 315 315 315 316 318 318 318 319 318 318 318 319 319 319 325 329 328 336 342 344 339 336 335 346 346 347 347 342 340 341 342 342 340 340 339 334 334 337 336 338 332 331 332 339
315 315 316 318 318 317 316 316 316 318 319 319 320 320 319 319 318 319 319 323 328 335 335 340 338 337 335 336 336 339 341 340 336 332 334 337 333 335 336 335 328 335 332 338 335 332 333 339 335
316 315 315 317 320 318 318 318 320 320 319 320 320 321 320 319 319 319 318 328 327 332 334 333 340 336 337 332 339 332 332 336 336 339 335 335 336 332 327 328 329 334 340 338 337 335 332 317 316
315 314 315 317 319 320 321 320 322 323 322 323 322 323 321 320 319 319 321 331 332 333 332 325 335 329 334 339 343 343 344 340 344 339 334 328 333 337 334 340 341 335 335 336 331 315 315 317 317
315 315 317 318 319 320 320 318 321 321 321 322 322 321 321 321 320 318 325 334 331 328 329 331 336 340 340 341 337 324 324 336 332 329 335 338 336 340 336 336 336 336 326 314 315 316 318 319 318
315 317 317 317 319 320 319 317 319 321 322 321 319 321 321 321 320 319 324 335 335 334 333 328 333 336 340 341 337 328 328 332 336 336 339 338 336 331 330 323 318 315 315 315 316 316 316 317 317
316 317 318 318 317 317 319 320 319 322 322 321 320 322 322 322 321 321 321 333 335 336 331 330 330 329 328 329 328 331 329 332 333 333 331 327 322 325 327 325 322 319 320 319 317 317 316 316 316
315 315 319 320 317 318 319 319 318 323 324 323 321 322 323 326 322 319 328 333 338 336 337 340 338 336 333 331 327 330 331 333 330 329 328 328 330 330 328 326 324 321 319 317 316 315 315 313 312
315 317 318 320 320 319 319 319 319 321 323 325 324 323 326 329 331 331 333 333 335 337 339 339 338 336 335 336 336 335 332 330 329 329 328 327 326 324 322 319 317 316 316 315 313 312 311 311 310
318 318 318 320 323 322 320 319 325 324 324 323 325 326 329 330 331 332 333 336 339 340 338 335 334 332 331 331 330 329 327 326 324 322 319 317 316 316 315 315 314 313 313 312 311 311 311 311 313
319 318 319 318 323 325 323 324 326 327 325 326 323 325 331 331 333 338 338 337 334 332 330 328 327 327 323 320 320 318 317 317 316 316 316 315 315 314 314 313 312 312 311 311 311 312 314 316 316
319 320 319 318 320 322 324 331 327 327 324 325 325 327 331 331 331 332 331 329 329 328 327 327 324 321 320 319 318 317 317 316 316 315 315 314 314 313 312 311 311 311 312 312 313 315 316 315 314
322 318 319 322 323 322 322 330 326 325 326 325 325 327 327 326 329 328 327 327 327 326 323 322 321 319 318 318 317 317 316 315 315 314 313 312 312 311 311 310 311 312 313 314 315 315 314 314 313
Wind_Speed
14 10 6 7 2 2 5 9 9 19 9 11 11 8 2 9 5 5 13 25 21 23 26 28 26 26 25 24 22 20 18 16 15 13 13 15 16 18 19 19 17 15 15 14 15 16 16 16 17
10 8 3 5 3 2 6 15 18 18 2 8 6 3 4 13 21 23 18 16 16 20 26 29 26 25 24 23 22 21 19 18 16 12 12 14 16 17 18 18 17 16 14 14 14 15 16 16 17
8 9 3 5 4 8 6 18 17 13 6 10 2 4 3 12 30 25 17 21 17 21 26 28 27 25 24 23 22 21 21 20 17 14 13 14 17 17 18 18 17 15 14 13 13 14 14 14 15
6 5 7 2 9 12 17 23 16 19 20 1 3 3 7 14 21 27 26 24 18 21 28 27 26 25 24 23 23 23 22 21 20 16 15 14 17 17 18 18 17 14 13 12 13 13 13 12 12
7 7 3 5 9 14 16 27 23 16 12 10 7 3 7 12 19 29 26 22 19 27 30 28 27 26 25 23 23 23 23 22 19 16 15 15 17 18 19 19 17 14 12 12 12 12 12 11 10
5 5 1 10 10 14 18 34 30 17 22 5 6 4 7 22 25 24 19 12 11 26 29 29 28 27 25 24 23 22 21 22 20 17 15 14 15 16 17 17 16 14 13 12 12 11 11 11 10
6 3 6 9 11 15 20 32 21 19 13 7 7 4 9 22 25 26 25 19 12 15 22 29 29 28 26 25 25 24 24 24 21 18 16 14 14 17 17 16 16 14 12 12 12 12 11 10 9
15 3 8 10 13 18 19 26 24 26 21 23 17 3 6 23 23 26 26 21 21 18 16 26 29 29 28 28 27 27 26 24 20 18 16 15 14 15 17 17 16 15 14 12 12 12 11 10 9
22 9 11 16 16 10 26 8 16 26 24 12 18 15 10 20 23 22 15 17 17 23 24 24 31 30 28 26 26 25 24 22 20 19 17 17 16 16 18 18 17 16 15 14 13 12 11 10 8
10 8 19 9 11 12 21 18 16 6 10 5 7 13 16 18 15 19 20 32 34 31 34 28 33 31 28 26 25 25 24 24 22 21 19 17 15 15 18 18 18 18 16 15 13 11 10 9 7
11 20 9 17 31 33 26 23 26 7 5 7 11 16 16 17 15 15 17 28 42 23 23 28 31 32 25 23 23 24 23 21 20 18 16 15 16 16 17 18 18 18 17 16 14 13 12 9 10
14 24 23 26 29 25 11 23 13 9 9 19 16 7 11 10 20 18 15 16 16 15 21 31 28 26 24 14 15 20 22 21 21 19 17 17 17 17 10 18 16 13 16 17 16 16 15 10 7
20 15 27 32 34 33 31 12 13 18 17 19 20 17 14 14 9 11 6 18 13 22 25 25 32 19 22 14 14 14 19 21 21 20 17 16 18 16 13 16 15 10 9 8 12 8 11 10 9
14 23 25 27 30 32 12 11 16 16 16 19 22 21 20 20 15 14 16 8 17 18 17 34 33 21 31 12 19 15 17 14 15 18 15 16 19 17 16 17 16 17 16 13 11 11 8 11 10
26 17 15 21 20 13 24 10 16 21 19 21 23 27 25 25 22 16 12 13 5 16 21 36 27 28 26 5 18 22 26 15 17 17 14 12 15 15 17 13 14 18 15 16 14 17 17 14 13
13 17 16 9 11 12 12 20 9 21 24 28 27 27 32 34 26 22 17 13 5 7 14 14 17 28 28 34 30 22 22 22 27 25 28 24 22 21 15 25 19 16 17 20 16 19 20 17 19
8 10 10 11 8 8 13 19 11 22 26 28 32 35 32 29 35 28 22 18 9 6 7 7 12 21 31 28 28 27 31 22 25 20 13 27 20 24 23 18 20 19 20 12 22 9 7 8 9
9 9 14 12 17 16 15 16 17 25 26 25 24 35 37 34 29 29 20 19 13 9 9 10 13 17 27 27 23 31 24 26 15 12 19 24 24 21 24 16 9 13 17 31 28 19 16 10 11
14 15 15 10 17 17 20 19 18 18 20 14 16 24 31 33 30 23 23 24 17 18 16 19 17 19 32 15 21 30 27 31 24 9 20 13 6 22 33 31 5 12 20 10 2 3 7 11 15
19 20 18 14 17 15 16 13 9 9 10 22 26 26 28 22 19 24 25 25 22 21 18 18 20 27 23 15 15 16 15 17 15 18 16 7 8 3 2 9 8 5 12 6 8 7 10 13 13
21 21 16 14 17 16 8 6 6 6 8 20 29 25 27 25 24 23 22 31 27 26 27 24 29 27 24 19 18 10 13 11 14 14 12 9 9 7 8 9 10 12 12 17 13 11 9 11 13
19 20 21 19 15 5 7 4 6 8 11 9 14 16 13 10 21 26 27 37 33 28 24 26 28 29 25 23 26 20 20 22 16 13 14 15 14 15 14 16 16 17 15 11 9 8 9 13 17
19 17 20 19 9 4 8 4 6 6 14 19 10 19 15 17 22 29 30 41 32 28 26 25 25 22 22 24 21 18 20 16 13 12 17 12 15 14 11 11 13 12 10 9 10 12 15 18 22
19 16 15 9 2 4 6 5 7 2 7 10 10 24 19 23 23 25 28 43 37 33 29 24 21 19 18 18 16 15 12 11 17 19 15 13 12 10 9 9 8 7 9 11 16 20 22 24 26
20 12 5 3 6 4 7 5 7 5 2 9 8 20 23 12 31 29 32 37 32 32 24 21 20 19 17 16 16 15 15 18 20 22 19 15 14 14 9 7 8 12 16 21 25 26 28 28 31
15 10 5 6 4 4 7 7 13 9 6 14 5 30 23 24 31 31 38 39 33 28 22 16 13 13 12 13 16 16 20 22 21 19 17 14 12 10 10 13 16 18 21 23 28 29 32 31 32
8 10 9 7 3 3 3 6 3 5 10 8 11 21 30 37 37 35 31 29 25 19 12 8 8 8 8 9 11 12 13 14 11 8 8 9 11 13 15 17 20 22 24 26 28 30 31 32 31
11 7 7 4 6 3 6 3 2 9 10 12 21 12 27 36 36 37 34 27 22 18 18 16 9 6 9 10 9 8 7 6 6 7 8 10 12 15 18 20 24 26 28 29 29 30 30 30 29
8 8 6 6 6 6 3 2 3 2 6 8 10 32 13 30 39 42 37 33 29 24 16 9 8 9 8 5 2 2 2 4 7 10 12 14 16 19 21 23 25 26 27 27 27 27 26 28 25
12 8 7 5 4 3 6 3 3 5 2 12 12 25 26 38 41 38 32 24 17 14 16 16 13 10 8 4 3 5 6 8 11 13 15 18 20 22 24 26 28 28 28 26 27 25 23 24 22
Wind_Direction
263 255 260 302 14 154 257 256 261 283 288 93 56 27 14 47 96 181 136 182 201 174 171 170 168 166 164 163 160 161 160 157 151 144 138 138 141 140 141 143 141 135 125 120 120 122 122 118 113
250 219 235 265 169 252 257 254 260 257 155 89 52 301 6 93 110 134 162 179 184 176 176 171 170 169 167 166 164 165 166 164 161 154 146 145 148 146 144 146 145 137 130 127 127 129 128 124 119
228 206 226 169 201 221 242 256 263 305 27 16 356 283 90 118 123 145 186 178 181 184 180 172 172 172 172 170 170 171 172 170 168 162 156 153 154 152 151 152 148 143 139 137 138 140 137 131 128
176 171 255 202 236 232 231 265 277 284 296 81 260 301 85 142 153 161 172 185 187 189 180 174 175 174 176 176 176 175 178 177 174 170 166 162 161 159 160 159 155 151 150 150 151 152 152 149 145
200 257 220 219 245 260 262 259 272 275 284 247 232 30 84 98 141 154 170 184 185 187 180 177 178 177 179 181 181 180 181 180 181 178 173 169 169 168 166 166 162 162 163 164 167 166 167 166 164
237 227 248 224 248 245 251 262 269 276 290 306 342 332 93 118 125 142 154 166 175 187 181 182 181 179 181 182 182 180 184 184 184 186 183 177 176 179 175 174 174 175 174 176 178 179 180 182 184
226 246 229 253 253 248 246 251 257 263 256 237 253 282 96 125 136 148 150 150 194 183 187 189 184 182 183 183 183 183 185 187 188 191 192 189 186 185 185 185 184 183 184 184 189 191 194 196 200
232 246 258 243 247 262 265 274 274 254 265 264 222 256 142 144 156 159 154 144 174 190 198 203 193 188 186 186 185 186 186 189 192 194 197 199 199 196 194 193 191 192 190 194 200 203 206 210 213
232 237 240 242 246 256 267 270 256 288 256 188 195 230 189 153 176 175 184 157 187 207 219 218 201 193 191 189 187 188 190 191 195 198 203 207 207 202 202 202 199 199 198 202 204 212 218 223 228
208 224 232 250 262 261 273 284 299 320 218 169 200 231 179 154 164 187 210 187 212 228 218 218 203 196 193 191 192 191 195 197 199 202 205 210 216 215 206 205 207 208 210 211 213 216 226 235 241
243 235 242 233 252 263 273 287 291 7 331 181 211 234 169 180 195 207 216 233 227 231 222 202 202 195 192 202 198 198 204 206 208 206 213 221 217 212 212 214 214 216 223 223 224 229 233 245 251
238 239 239 250 256 274 280 298 309 301 283 304 320 321 285 236 222 219 231 204 188 251 192 186 180 171 170 211 217 215 211 210 208 210 211 217 219 204 207 216 214 224 234 235 230 234 237 230 230
235 242 236 239 250 260 269 271 270 285 286 292 302 305 283 293 186 198 199 202 214 180 165 165 163 139 155 177 235 231 231 223 218 219 215 216 210 204 211 237 227 222 225 242 227 238 232 232 240
243 238 247 242 229 248 250 264 272 261 274 282 286 290 278 281 274 278 230 171 162 197 194 201 170 173 177 167 207 242 235 219 226 229 229 227 215 203 217 239 244 252 259 245 246 252 253 245 237
244 253 256 238 237 237 256 267 239 264 269 265 263 273 272 273 266 271 275 295 62 151 178 186 186 209 216 286 186 214 229 231 220 219 219 215 215 203 220 233 238 252 263 260 249 237 225 214 216
235 246 248 254 219 231 205 254 245 235 247 248 251 254 254 261 263 265 274 300 249 141 170 196 224 234 191 199 180 224 234 225 221 212 227 220 206 209 223 223 224 222 241 245 238 236 245 246 252
246 240 246 250 245 208 202 248 237 234 243 233 235 236 241 243 253 255 255 266 240 180 165 179 188 203 207 200 211 192 213 211 209 216 197 223 222 215 216 237 248 336 289 295 352 273 327 238 312
236 223 242 241 229 240 243 236 231 231 238 242 239 226 232 236 242 241 246 234 210 173 153 164 183 190 202 179 202 203 216 224 214 246 280 264 262 255 256 229 317 284 284 271 281 292 325 320 262
251 241 222 231 240 226 234 232 216 217 227 238 253 218 218 226 230 223 208 223 197 164 144 138 144 176 158 185 207 219 228 225 222 210 256 267 286 253 247 234 246 266 286 278 185 258 215 251 288
241 246 254 261 244 217 242 207 199 203 214 224 230 237 211 211 218 204 215 198 179 162 150 143 142 153 177 173 166 152 184 205 198 224 230 257 290 219 173 202 173 201 237 230 196 222 271 283 292
231 242 248 250 267 253 160 205 197 231 243 241 229 229 199 206 203 198 203 190 169 153 149 147 159 163 172 167 163 153 176 188 205 194 221 241 213 216 187 184 176 193 203 223 243 268 285 290 301
233 230 244 255 264 269 130 236 228 232 243 245 208 167 181 205 210 203 195 173 169 160 160 155 162 164 159 180 179 184 198 196 205 221 203 198 197 189 199 201 209 219 227 236 244 247 254 268 283
232 232 229 241 251 213 283 132 257 262 263 223 192 173 187 217 217 203 188 175 170 170 168 161 158 166 179 183 184 181 187 190 189 197 193 188 177 175 191 208 224 224 228 249 270 283 292 293 292
236 234 246 231 177 259 234 144 271 258 232 190 171 175 192 217 216 205 188 177 171 161 154 164 173 178 191 194 204 217 201 193 165 164 171 178 181 175 192 211 224 244 271 281 286 288 288 288 288
221 225 216 216 222 206 205 263 220 238 172 103 182 181 194 142 198 193 174 169 162 167 165 166 184 182 187 193 213 206 187 188 181 175 175 177 176 186 196 229 265 279 284 290 288 291 293 293 294
217 188 147 180 176 213 229 220 234 209 192 126 168 184 152 129 128 143 147 146 148 160 165 161 171 176 177 173 170 166 167 175 175 172 176 188 200 224 252 264 268 273 278 282 289 293 293 297 298
196 202 184 127 25 60 262 245 36 104 44 49 103 125 128 123 123 132 139 139 140 140 131 150 169 161 153 155 155 164 172 184 185 192 214 236 252 264 274 283 288 289 292 295 295 297 300 301 300
188 180 188 199 143 161 265 176 105 356 52 29 25 109 122 125 120 128 130 128 126 126 125 120 114 104 118 131 148 152 170 192 221 243 266 280 284 287 290 295 298 300 302 304 304 306 305 301 305
221 196 188 143 142 174 201 230 210 5 42 62 39 45 91 123 112 116 116 115 119 119 117 108 94 98 98 95 142 182 222 269 279 283 288 292 296 298 301 302 301 299 301 304 305 303 301 300 303
316 176 229 129 211 208 156 207 353 274 102 69 53 65 60 351 113 114 115 114 115 113 105 97 95 96 101 92 348 330 319 312 310 307 306 306 307 307 306 306 303 304 305 305 306 304 305 301 304